Probability
68 55 58 65 65 61 58 58 61 65 58 52 48 45 55 48 48 35 35 58 58 58 61 52 52 52 52 52 48 45 45 39 35 42 45 52 48 45 52 45 39 42 42
68 68 68 74 61 65 65 65 58 58 52 55 58 52 52 52 42 39 35 52 58 61 61 58 55 55 55 52 45 48 52 48 42 39 45 52 58 45 52 45 45 42 32
68 68 68 65 61 65 58 61 58 61 58 52 52 42 42 45 39 45 52 45 45 65 61 58 61 58 52 45 45 45 48 42 45 42 45 48 52 55 45 39 32 35 26
58 65 68 61 71 74 68 71 68 68 65 65 58 42 42 52 48 48 45 48 45 35 45 65 58 55 52 45 45 45 45 42 42 42 42 42 48 45 45 42 39 29 29
48 71 68 71 68 65 68 65 68 61 68 65 52 52 52 55 58 45 45 45 52 58 45 52 65 52 48 48 48 42 39 42 45 42 42 45 45 52 42 45 42 39 29
48 55 65 61 68 65 74 74 68 68 68 68 35 29 48 42 52 45 45 39 52 52 48 42 52 45 48 48 45 39 35 39 39 42 45 45 48 48 45 42 35 23 29
48 58 61 68 71 71 74 61 71 61 68 71 65 58 52 48 52 55 55 55 52 45 48 42 42 42 42 39 42 48 42 39 42 42 42 42 48 45 42 42 32 19 23
52 48 58 61 68 77 68 71 68 71 71 74 71 61 58 61 58 26 52 52 52 55 55 42 52 55 42 35 26 32 42 42 35 35 35 39 39 42 42 39 35 26 26
58 65 65 74 74 77 71 68 74 65 68 68 65 65 58 48 48 52 48 42 58 55 45 42 48 48 45 39 26 29 35 35 32 32 29 29 29 29 29 32 26 29 23
68 68 68 71 71 84 81 77 74 77 71 58 65 68 65 55 48 52 58 48 45 45 42 23 32 39 39 39 29 16 19 19 29 23 26 29 29 26 19 26 19 19 23
68 65 65 65 68 74 77 74 77 74 74 71 68 65 58 61 58 52 35 45 45 42 42 45 45 35 32 35 26 16 16 16 16 16 19 19 26 26 23 19 23 13 13
74 68 68 74 74 74 71 71 71 71 74 74 77 74 65 58 55 52 39 45 48 42 42 39 42 39 35 32 29 16 16 13 13 13 13 13 16 19 19 16 16 10 10
74 71 68 71 71 68 68 74 71 71 71 71 71 71 71 65 61 55 42 39 32 35 39 39 39 42 29 26 29 16 10 10 3 0 0 13 16 16 23 23 13 10 6
68 68 68 65 65 65 61 65 65 68 65 58 55 61 61 61 61 55 48 45 39 42 42 45 32 32 35 26 16 10 16 6 3 0 0 0 0 6 6 6 6 6 3
68 68 65 65 65 65 61 61 65 61 58 55 52 55 61 58 61 48 45 45 39 32 29 39 32 32 32 32 13 19 16 13 10 6 0 0 3 3 0 0 0 0 0
68 68 61 61 61 58 55 58 48 45 48 52 52 55 55 58 58 45 45 48 45 42 35 35 39 32 35 19 10 16 19 13 10 3 3 0 0 0 0 0 0 0 0
68 65 61 61 61 52 48 58 45 45 42 42 42 35 42 52 48 52 48 45 42 42 32 29 32 32 39 35 19 23 19 19 13 6 3 0 0 0 0 0 0 0 0
61 61 65 58 58 58 58 55 48 42 39 42 39 35 35 32 35 42 42 42 42 39 39 35 29 32 32 29 26 23 19 16 16 13 3 0 0 0 0 0 0 0 0
61 65 61 65 61 58 55 52 48 45 48 42 42 39 39 32 39 42 42 42 39 29 48 35 23 29 32 26 23 16 16 19 16 16 13 0 0 0 0 0 0 0 0
65 58 65 65 55 52 52 45 45 42 42 42 42 42 39 35 39 42 35 39 39 39 42 35 32 26 26 26 23 16 19 16 16 16 16 10 6 3 0 0 0 0 0
58 61 61 52 48 48 45 45 42 42 42 42 39 35 32 29 29 29 26 32 35 39 35 35 29 35 26 26 19 19 16 19 19 16 16 16 13 6 6 3 0 0 0
61 65 58 52 52 42 29 26 35 39 42 42 35 35 32 29 29 23 26 26 26 29 29 39 32 29 29 29 26 16 19 19 16 19 19 16 16 13 13 10 3 0 0
58 61 61 55 52 39 19 16 16 32 32 35 35 35 32 32 29 26 26 19 16 13 13 23 29 29 26 26 26 23 16 16 16 16 16 16 16 16 13 13 10 0 0
61 65 58 55 52 35 19 6 10 26 35 35 35 32 42 35 29 32 29 32 32 26 26 23 23 23 23 23 23 19 19 16 16 16 16 16 16 10 10 13 13 3 0
61 61 61 55 55 45 16 10 3 32 32 32 32 29 35 32 23 16 29 32 32 32 19 16 13 16 13 10 10 10 19 16 16 16 10 10 10 10 10 10 10 3 3
58 55 58 52 48 45 16 10 3 29 29 32 35 29 23 23 19 13 19 32 26 29 26 19 16 16 16 16 6 10 19 16 13 16 10 10 10 10 10 10 10 3 3
Height
5890 5890 5890 5890 5890 5890 5890 5889 5889 5889 5889 5888 5888 5888 5888 5888 5888 5888 5888 5887 5887 5886 5886 5886 5885 5885 5884 5884 5883 5883 5882 5882 5882 5881 5881 5880 5880 5880 5880 5879 5879 5879 5879
5891 5891 5891 5891 5891 5891 5890 5890 5890 5889 5889 5889 5889 5888 5888 5888 5888 5888 5887 5887 5886 5886 5885 5885 5884 5883 5883 5882 5882 5881 5880 5880 5879 5879 5878 5878 5877 5877 5877 5876 5876 5876 5876
5892 5892 5892 5892 5892 5892 5891 5891 5890 5890 5889 5889 5888 5888 5888 5887 5887 5887 5886 5886 5885 5884 5884 5883 5883 5882 5881 5880 5879 5879 5878 5877 5876 5876 5875 5875 5874 5874 5874 5874 5873 5873 5873
5894 5894 5893 5893 5893 5892 5892 5892 5891 5891 5890 5889 5888 5888 5887 5887 5886 5886 5885 5885 5884 5883 5883 5882 5881 5880 5879 5878 5877 5876 5875 5874 5873 5873 5873 5872 5872 5871 5871 5871 5870 5870 5870
5896 5895 5894 5894 5894 5893 5892 5892 5891 5890 5889 5889 5888 5887 5886 5886 5885 5884 5884 5883 5882 5882 5881 5880 5879 5878 5877 5876 5875 5874 5873 5872 5871 5870 5870 5869 5869 5868 5868 5868 5867 5867 5867
5897 5896 5895 5895 5894 5893 5892 5891 5891 5890 5889 5888 5887 5886 5886 5885 5884 5883 5882 5880 5880 5880 5879 5878 5877 5876 5875 5874 5873 5871 5870 5869 5868 5867 5867 5866 5866 5865 5865 5864 5864 5864 5864
5897 5896 5896 5895 5894 5893 5892 5891 5890 5889 5888 5887 5886 5885 5884 5884 5882 5882 5881 5880 5879 5878 5877 5876 5875 5874 5873 5871 5870 5869 5867 5866 5865 5865 5864 5863 5862 5862 5861 5861 5861 5860 5860
5897 5896 5896 5895 5894 5893 5892 5891 5889 5888 5887 5886 5885 5884 5884 5883 5881 5880 5880 5879 5877 5876 5876 5874 5873 5871 5870 5869 5867 5866 5864 5863 5862 5861 5861 5860 5859 5858 5857 5857 5857 5857 5856
5897 5896 5896 5895 5894 5893 5891 5890 5889 5887 5886 5885 5884 5883 5882 5881 5880 5879 5878 5877 5875 5874 5873 5872 5871 5869 5867 5866 5864 5863 5862 5860 5859 5858 5857 5856 5855 5854 5854 5853 5853 5852 5852
5897 5897 5896 5895 5893 5892 5891 5889 5888 5886 5885 5884 5882 5881 5880 5879 5878 5877 5876 5875 5873 5872 5870 5869 5868 5866 5865 5863 5861 5860 5858 5857 5856 5855 5853 5852 5851 5850 5849 5849 5848 5848 5848
5897 5896 5895 5894 5892 5891 5889 5888 5886 5885 5883 5882 5881 5879 5878 5877 5876 5875 5874 5872 5871 5869 5868 5866 5865 5863 5861 5860 5858 5857 5855 5853 5852 5851 5849 5848 5847 5846 5846 5845 5844 5843 5843
5897 5895 5894 5893 5891 5890 5888 5887 5885 5883 5882 5880 5879 5877 5876 5875 5874 5872 5871 5869 5868 5867 5865 5863 5861 5860 5858 5856 5855 5853 5851 5850 5848 5847 5845 5844 5843 5842 5841 5840 5840 5839 5839
5896 5895 5893 5892 5890 5889 5887 5885 5883 5881 5880 5878 5877 5875 5874 5873 5871 5870 5868 5866 5865 5863 5861 5860 5858 5856 5854 5852 5850 5849 5847 5846 5844 5843 5841 5840 5839 5838 5836 5836 5835 5834 5833
5895 5894 5892 5890 5889 5887 5885 5883 5881 5879 5878 5876 5874 5873 5871 5870 5868 5867 5865 5863 5861 5860 5858 5856 5854 5852 5850 5848 5846 5844 5843 5841 5840 5838 5837 5836 5834 5833 5832 5831 5830 5830 5829
5893 5892 5890 5889 5887 5885 5883 5881 5879 5877 5875 5874 5872 5870 5869 5867 5865 5863 5861 5859 5858 5856 5854 5852 5849 5847 5845 5843 5842 5840 5838 5837 5835 5834 5832 5831 5830 5828 5827 5826 5825 5825 5824
5891 5890 5888 5886 5885 5883 5880 5878 5876 5874 5873 5871 5869 5868 5866 5863 5862 5860 5858 5855 5853 5851 5849 5847 5845 5843 5841 5839 5837 5835 5833 5832 5830 5829 5827 5826 5824 5823 5822 5820 5820 5819 5818
5889 5888 5886 5884 5882 5880 5878 5876 5874 5872 5870 5868 5866 5864 5862 5860 5858 5856 5853 5851 5849 5847 5845 5843 5840 5838 5836 5834 5832 5830 5829 5827 5826 5824 5822 5820 5818 5817 5816 5814 5813 5812 5811
5887 5885 5883 5881 5879 5877 5875 5873 5871 5869 5867 5865 5863 5861 5859 5856 5854 5851 5849 5847 5845 5842 5840 5838 5836 5834 5831 5829 5827 5825 5824 5822 5820 5818 5816 5814 5812 5811 5809 5808 5806 5805 5804
5884 5882 5880 5878 5876 5873 5871 5869 5867 5865 5863 5861 5859 5857 5855 5852 5849 5847 5845 5842 5840 5838 5836 5833 5831 5829 5827 5825 5822 5820 5818 5816 5814 5812 5810 5808 5806 5804 5803 5801 5800 5799 5797
5881 5879 5877 5874 5872 5870 5868 5865 5863 5861 5859 5857 5855 5852 5850 5847 5845 5842 5840 5838 5835 5833 5831 5828 5826 5824 5822 5820 5817 5815 5813 5811 5809 5806 5804 5802 5800 5797 5795 5794 5792 5791 5790
5877 5875 5873 5871 5868 5866 5864 5861 5859 5857 5855 5852 5850 5847 5845 5842 5840 5837 5835 5832 5830 5828 5825 5823 5821 5819 5816 5814 5812 5809 5807 5805 5803 5800 5797 5795 5793 5791 5788 5786 5785 5783 5782
5872 5870 5868 5866 5864 5862 5859 5857 5854 5852 5850 5847 5845 5843 5840 5837 5835 5832 5830 5827 5825 5823 5820 5818 5815 5813 5810 5808 5805 5803 5800 5798 5796 5794 5791 5788 5785 5783 5781 5778 5776 5775 5773
5868 5866 5864 5861 5859 5857 5855 5852 5850 5847 5845 5842 5840 5837 5834 5832 5830 5827 5825 5822 5819 5817 5815 5813 5810 5807 5805 5802 5799 5796 5794 5791 5789 5786 5783 5781 5778 5775 5772 5770 5768 5766 5765
5863 5861 5859 5856 5854 5852 5849 5847 5845 5842 5839 5837 5834 5831 5829 5826 5824 5821 5819 5817 5814 5812 5809 5807 5804 5801 5798 5795 5792 5790 5787 5784 5782 5779 5776 5773 5770 5767 5764 5762 5760 5758 5757
5857 5855 5853 5851 5849 5847 5844 5842 5839 5836 5834 5831 5828 5825 5823 5820 5818 5815 5813 5810 5808 5805 5802 5800 5797 5794 5792 5789 5786 5783 5780 5777 5775 5772 5769 5765 5762 5759 5757 5754 5752 5750 5749
5851 5849 5848 5845 5843 5841 5838 5836 5833 5830 5828 5825 5822 5819 5816 5813 5811 5808 5806 5803 5801 5798 5796 5793 5791 5788 5785 5782 5779 5776 5773 5770 5767 5764 5761 5758 5755 5752 5750 5747 5745 5743 5741
Wind_Speed
4 4 4 4 4 4 4 4 4 4 3 3 2 2 3 3 3 3 3 4 5 6 6 7 7 8 8 8 9 10 10 11 12 12 12 12 12 12 12 12 12 12 12
4 4 4 4 5 5 4 4 4 4 4 3 3 3 3 3 3 4 4 5 6 7 7 7 8 8 9 9 9 11 11 12 12 13 13 13 14 14 13 13 12 12 12
5 4 4 4 4 4 4 4 4 4 4 4 4 3 4 4 4 5 6 6 7 7 8 8 8 9 10 10 11 12 12 12 12 13 13 13 13 13 13 12 12 12 12
5 5 4 4 4 4 4 4 4 4 5 5 5 5 5 5 5 6 7 7 8 9 9 9 9 10 10 11 11 11 12 12 12 12 12 12 13 12 12 12 12 12 12
6 6 5 5 4 4 5 5 6 6 6 6 6 6 6 7 7 7 8 8 8 9 10 10 10 10 11 11 11 11 12 12 12 13 13 13 13 13 13 12 12 12 11
6 6 6 5 5 6 6 6 7 7 7 7 7 7 7 8 9 9 9 9 10 10 11 11 11 12 11 11 12 13 13 13 13 13 13 13 14 14 14 13 13 13 13
7 6 6 6 7 7 8 8 8 8 8 8 8 8 8 9 9 9 9 10 10 11 11 12 12 12 12 12 13 13 13 14 14 14 14 14 14 15 15 15 15 14 14
7 7 7 7 8 9 9 9 9 9 9 9 8 8 9 9 9 10 10 11 11 11 12 12 13 13 14 14 14 14 14 14 14 14 15 14 15 15 15 16 16 15 15
7 7 7 8 9 9 10 10 10 10 9 9 9 9 9 9 10 10 11 11 12 12 13 14 13 14 14 15 15 15 14 15 15 15 15 15 15 15 15 16 16 16 16
8 8 8 9 10 10 10 10 10 10 10 10 10 10 10 10 11 11 12 12 12 13 14 14 14 15 15 15 15 15 15 16 16 16 16 15 15 15 15 15 17 17 17
8 8 9 10 10 11 12 12 11 11 11 11 11 11 12 12 13 13 13 13 13 14 15 15 15 16 16 16 16 16 16 16 16 16 16 15 15 16 16 16 17 17 18
8 9 10 11 12 12 13 12 12 12 12 11 11 12 12 13 13 14 14 15 15 15 15 15 16 17 17 16 17 17 17 16 16 16 16 16 16 17 17 16 17 18 18
10 10 11 12 13 13 13 13 12 12 12 12 12 12 13 14 14 15 15 16 16 16 16 16 16 17 17 17 18 18 17 17 17 17 17 17 17 17 17 17 17 18 19
10 11 12 13 13 13 14 14 13 13 13 13 13 14 14 14 15 16 16 17 17 17 17 17 17 18 18 18 18 18 18 18 18 18 17 17 17 17 18 17 17 18 19
12 12 12 13 14 14 14 14 14 13 13 13 14 14 15 15 16 17 18 18 18 18 18 17 17 17 18 18 18 18 18 18 18 19 19 19 19 19 19 19 19 19 19
13 13 14 14 14 15 15 15 15 14 14 14 15 15 16 16 17 18 18 18 18 18 18 18 18 18 18 18 18 18 18 18 18 19 20 20 20 20 20 21 21 21 22
14 14 15 16 15 15 15 15 15 15 16 16 16 16 17 18 18 18 18 18 18 19 19 19 18 19 19 19 19 19 19 18 18 19 19 20 20 20 21 22 22 22 23
15 16 17 17 16 16 17 17 16 16 17 17 18 18 19 19 19 19 18 18 18 19 20 20 19 19 19 20 20 20 20 20 20 20 20 21 21 21 21 22 22 22 22
16 17 17 18 18 18 19 18 18 18 18 19 19 19 20 20 20 20 19 19 19 20 21 21 20 20 20 21 21 20 20 20 20 21 21 22 23 23 23 22 22 23 23
17 18 18 18 18 19 19 19 19 19 20 20 20 20 20 21 21 21 21 20 21 21 21 21 21 20 21 22 22 21 21 21 21 22 23 24 24 24 24 23 23 24 24
19 19 19 19 19 20 20 20 20 21 21 21 21 21 21 21 21 22 22 22 22 22 22 21 21 22 22 23 23 23 23 23 23 23 24 25 25 24 24 24 24 25 25
20 20 20 20 20 20 20 21 21 22 22 22 22 22 22 22 22 23 23 23 22 22 22 23 23 23 24 24 24 24 24 24 24 25 25 25 25 26 25 25 25 25 25
21 21 21 21 21 21 21 21 22 22 23 23 23 23 23 23 23 24 24 24 23 23 24 24 24 24 24 25 25 25 26 26 26 27 28 28 27 27 27 26 25 25 25
22 23 23 22 22 22 22 23 23 23 24 24 24 24 24 24 24 24 24 24 25 25 24 25 25 25 26 26 27 27 26 27 27 28 29 28 28 28 27 26 26 26 26
23 24 23 24 24 23 23 23 24 24 25 25 25 25 25 25 25 26 26 26 25 25 26 26 25 26 27 27 28 28 28 28 28 28 29 29 29 28 27 26 26 26 26
24 25 24 25 25 24 24 24 25 25 26 27 27 27 27 27 27 26 27 27 27 27 27 26 26 27 28 28 29 29 29 29 29 29 30 30 29 28 27 26 26 25 25
Wind_Direction
64 65 64 62 64 66 62 58 52 39 31 19 6 358 343 326 320 326 315 316 318 315 309 305 304 304 302 295 291 289 287 286 285 283 282 284 283 283 282 280 276 275 274
61 63 61 57 64 59 55 54 50 43 34 19 359 353 348 335 323 322 314 313 316 317 313 308 304 305 304 301 297 293 290 287 287 287 286 286 287 285 282 282 279 277 273
51 50 54 62 54 44 43 41 34 27 14 7 356 342 337 326 321 317 313 311 312 316 317 314 311 307 307 306 300 296 294 291 290 289 289 288 289 288 284 283 285 281 275
47 38 41 41 33 27 22 13 2 353 352 349 346 339 339 335 328 320 316 312 311 312 313 314 313 310 308 308 308 304 301 299 298 292 289 289 288 290 286 283 286 282 278
39 36 33 27 20 14 3 357 353 345 344 340 335 333 334 331 325 324 319 319 315 311 312 312 312 312 310 309 308 306 305 304 299 295 293 290 287 285 286 283 284 285 284
31 23 20 16 5 357 347 340 337 334 335 336 329 325 324 320 320 320 315 314 313 315 312 311 311 311 312 311 309 308 305 305 302 298 295 291 287 285 285 284 284 281 281
18 10 6 4 359 352 344 337 331 326 325 326 327 329 323 319 318 319 317 319 317 316 314 312 312 313 311 312 311 310 307 306 303 299 296 294 292 287 282 280 280 279 279
1 359 359 354 351 349 345 339 336 331 326 325 322 320 322 322 322 322 322 320 319 316 314 315 316 313 309 310 309 308 305 306 304 300 296 296 293 289 284 280 278 279 278
354 351 350 349 347 346 343 340 338 338 335 331 325 320 318 321 321 322 321 321 319 317 314 313 314 314 312 309 306 305 305 305 304 302 297 294 293 292 288 281 278 279 280
353 353 349 347 344 343 342 341 338 338 335 333 330 326 323 321 321 320 318 316 315 316 315 314 314 314 313 313 312 308 307 305 304 302 301 296 294 293 290 285 281 279 279
345 347 346 346 342 339 339 339 337 334 332 330 330 329 328 325 324 322 320 316 315 314 314 313 314 315 313 312 313 310 309 308 306 304 302 300 296 294 289 288 283 279 278
349 347 344 343 342 341 340 337 335 333 330 327 327 328 328 326 323 323 321 318 316 316 313 311 312 312 311 310 309 309 309 307 304 302 299 297 297 294 290 289 284 281 278
342 343 341 338 336 337 338 337 333 331 331 329 328 328 327 325 322 321 318 318 317 316 314 312 311 311 311 309 308 308 308 307 306 303 299 298 296 294 292 289 287 283 280
334 335 336 336 334 334 335 335 335 332 328 327 326 325 322 321 321 320 318 317 316 314 313 312 310 311 311 308 307 307 306 304 304 302 298 296 294 292 291 290 286 286 285
332 332 333 332 333 332 333 333 330 328 323 322 321 321 320 318 318 317 316 315 315 314 314 314 312 312 312 310 308 309 306 304 302 301 299 297 293 291 289 286 284 283 282
328 327 327 327 327 329 330 331 330 325 323 320 319 319 319 317 315 314 314 313 314 315 314 313 311 311 311 311 310 311 309 307 306 304 301 295 294 292 290 288 284 280 280
322 322 322 323 323 324 325 325 324 321 320 320 319 319 318 318 315 312 311 311 312 312 312 311 310 310 310 310 310 309 306 305 304 304 303 299 295 292 290 288 284 280 279
318 318 317 319 319 319 319 321 320 319 317 318 318 318 317 317 314 311 311 311 311 311 310 309 308 307 309 311 309 306 305 305 304 303 301 302 301 298 293 287 283 281 280
316 317 317 316 316 316 315 316 315 315 316 314 314 314 314 314 315 313 312 311 311 311 310 309 309 308 308 309 310 307 306 305 305 304 304 303 301 299 295 289 284 283 282
312 314 314 315 315 315 314 312 312 312 312 312 311 311 311 311 312 312 311 310 309 309 309 308 309 308 308 308 307 306 305 306 305 305 304 304 304 298 293 290 286 284 283
308 310 311 311 312 313 312 310 310 310 310 310 310 310 310 309 309 309 309 309 308 307 307 307 309 310 309 308 306 305 305 305 304 305 305 305 304 301 296 293 290 288 286
304 305 307 307 309 309 310 309 309 309 309 308 308 308 307 307 307 306 306 307 307 307 308 308 308 309 309 309 308 306 305 304 304 304 304 305 304 303 298 293 291 289 288
302 303 304 304 305 307 308 309 309 310 309 308 307 307 305 305 305 305 304 303 303 304 306 307 307 308 308 308 308 308 307 306 307 306 304 305 306 306 303 297 293 292 290
300 301 301 302 302 304 306 307 307 308 309 309 308 306 305 304 303 303 304 303 301 301 302 304 305 306 306 306 306 307 307 308 308 308 308 308 308 307 304 299 296 292 290
298 300 299 301 301 302 303 305 306 307 309 309 308 306 306 306 304 303 302 302 302 301 302 303 304 303 304 304 306 306 305 306 307 307 308 307 307 307 303 299 297 294 290
296 297 298 299 300 300 301 302 304 305 306 307 307 305 304 303 302 301 301 302 301 301 300 302 304 304 302 302 304 305 305 304 304 305 307 306 305 305 304 300 297 294 290